This is the latest recevied weather packets stored in our database for station/object W7JFO-3. If no packets are shown the sender has not sent any weather packets the latest 10 day(s).
| Time | Temp. | Humidity | Pressure | Rain* | Wind** | Luminosity | Snow |
|---|---|---|---|---|---|---|---|
| 1778009503 | 11.67° C | 32% | 1014.4 hPa | 0 mm | - | 705 W/m² | - |
| 1778008603 | 11.67° C | 33% | 1014.1 hPa | 0 mm | - | 779 W/m² | - |
| 1778007703 | 11.11° C | 33% | 1014.3 hPa | 0 mm | - | 881 W/m² | - |
| 1778006803 | 11.11° C | 32% | 1014.5 hPa | 0 mm | - | 879 W/m² | - |
| 1778005903 | 11.67° C | 32% | 1014.3 hPa | 0 mm | - | 868 W/m² | - |
| 1778005003 | 11.11° C | 35% | 1014.6 hPa | 0 mm | - | 853 W/m² | - |
| 1778004103 | 10.56° C | 35% | 1014.2 hPa | 0 mm | - | 833 W/m² | - |
| 1778003203 | 10.56° C | 39% | 1014.3 hPa | 0 mm | - | 819 W/m² | - |
| 1778002303 | 10.56° C | 35% | 1014.6 hPa | 0 mm | - | 795 W/m² | - |
| 1778001403 | 10° C | 37% | 1014.3 hPa | 0 mm | - | 772 W/m² | - |
| 1778000503 | 10° C | 40% | 1014.3 hPa | 0 mm | - | 761 W/m² | - |
| 1777999603 | 10° C | 42% | 1014.1 hPa | 0 mm | - | 756 W/m² | - |
| 1777998703 | 9.44° C | 42% | 1014.1 hPa | 0 mm | - | 724 W/m² | - |
| 1777997804 | 8.89° C | 42% | 1014.1 hPa | 0 mm | - | 448 W/m² | - |
| 1777996904 | 8.89° C | 44% | 1014.3 hPa | 0 mm | - | 519 W/m² | - |
| 1777996004 | 8.89° C | 43% | 1014.1 hPa | 0 mm | - | 420 W/m² | - |
| 1777995104 | 10° C | 41% | 1014.3 hPa | 0 mm | - | 418 W/m² | - |
| 1777994204 | 9.44° C | 40% | 1014.4 hPa | 0 mm | - | 348 W/m² | - |
| 1777993304 | 9.44° C | 42% | 1014.3 hPa | 0 mm | - | 357 W/m² | - |
| 1777992404 | 8.33° C | 42% | 1014.4 hPa | 0 mm | - | 355 W/m² | - |
| 1777991504 | 8.33° C | 40% | 1014.3 hPa | 0 mm | - | 359 W/m² | - |
| 1777990604 | 7.78° C | 39% | 1014.2 hPa | 0 mm | - | 329 W/m² | - |
| 1777989704 | 6.67° C | 44% | 1014.2 hPa | 0 mm | - | 336 W/m² | - |
| 1777988804 | 6.11° C | 46% | 1014.1 hPa | 0 mm | - | 125 W/m² | - |
| 1777987904 | 6.67° C | 43% | 1013.8 hPa | 0 mm | - | 65 W/m² | - |
* Rain latest hour (hover to see other rain measurements)
** Current wind speed in m/s (hover to see current wind gust speed)